Retour au catalogue

FARTUSHNIY V.G.

ActifNavigationSSO
NORAD 57194·PAYLOAD·🇷🇺 Russia
Ce nom de satellite n'a pas encore été confirmé par des sources officielles.

Lancé Jun 27, 2023 depuis Vostochny Cosmodrome

Loading…

Prochains Passages (prochaines 24 heures)

TLE

FraisSource: Space-Track

Époque: Sep 14, 2026, 14:28 UTC

1 57194U 23091AE  26257.60336906  .00007954  00000-0  30201-3 0  9990
2 57194  97.4971 320.8248 0011988 146.6236 213.5761 15.27035628177916

Suivez FARTUSHNIY V.G. en temps réel avec AllMySat

Download on the App Store